Time,TemperatureF,DewpointF,PressureIn,WindDirection,WindDirectionDegrees,WindSpeedMPH,WindSpeedGustMPH,Humidity,HourlyPrecipIn,Conditions,Clouds,dailyrainin,SolarRadiationWatts/m^2,SoftwareType,DateUTC
2013-04-15 00:04:00,66.0,65.0,29.83,ESE,108,0.0,1.0,97,0.00,,,0.00,0,weatherlink.com 1.10,2013-04-15 04:04:00,
2013-04-15 00:19:00,66.1,65.0,29.82,ESE,115,0.0,2.0,97,0.00,,,0.00,0,weatherlink.com 1.10,2013-04-15 04:19:00,
2013-04-15 00:34:00,66.1,65.0,29.81,ESE,115,0.0,2.0,97,0.00,,,0.00,0,weatherlink.com 1.10,2013-04-15 04:34:00,
2013-04-15 00:49:00,66.3,66.0,29.82,ESE,117,0.0,2.0,97,0.00,,,0.00,0,weatherlink.com 1.10,2013-04-15 04:49:00,
2013-04-15 01:04:00,66.6,66.0,29.79,SW,228,0.0,5.0,97,0.00,,,0.00,0,weatherlink.com 1.10,2013-04-15 05:04:00,
2013-04-15 01:19:00,66.9,66.0,29.78,South,182,0.0,6.0,97,0.00,,,0.00,0,weatherlink.com 1.10,2013-04-15 05:19:00,
2013-04-15 01:34:00,66.9,66.0,29.75,SW,225,0.0,7.0,97,0.00,,,0.00,0,weatherlink.com 1.10,2013-04-15 05:34:00,
2013-04-15 01:49:00,66.6,66.0,29.76,WSW,252,0.0,4.0,97,0.00,,,0.00,0,weatherlink.com 1.10,2013-04-15 05:49:00,
2013-04-15 02:04:00,66.3,66.0,29.76,WSW,242,0.0,1.0,97,0.00,,,0.00,0,weatherlink.com 1.10,2013-04-15 06:04:00,
2013-04-15 02:19:00,66.0,65.0,29.76,WSW,242,0.0,2.0,97,0.00,,,0.00,0,weatherlink.com 1.10,2013-04-15 06:19:00,
2013-04-15 02:34:00,66.0,65.0,29.80,NW,307,0.0,9.0,97,0.00,,,0.00,0,weatherlink.com 1.10,2013-04-15 06:34:00,
2013-04-15 02:49:00,65.8,65.0,29.82,WSW,238,0.0,7.0,97,0.00,,,0.00,0,weatherlink.com 1.10,2013-04-15 06:49:00,
2013-04-15 03:05:00,65.6,65.0,29.82,NNW,331,0.0,4.0,97,0.00,,,0.00,0,weatherlink.com 1.10,2013-04-15 07:05:00,
2013-04-15 03:50:00,64.7,64.0,29.83,NNW,331,0.0,0.0,97,0.00,,,0.00,0,weatherlink.com 1.10,2013-04-15 07:50:00,
2013-04-15 04:05:00,64.2,63.0,29.83,NNW,331,0.0,0.0,97,0.00,,,0.00,0,weatherlink.com 1.10,2013-04-15 08:05:00,
2013-04-15 04:21:00,63.9,63.0,29.83,NNW,331,0.0,0.0,97,0.00,,,0.00,0,weatherlink.com 1.10,2013-04-15 08:21:00,
2013-04-15 04:36:00,63.2,62.0,29.83,NNW,331,0.0,0.0,97,0.00,,,0.00,0,weatherlink.com 1.10,2013-04-15 08:36:00,
2013-04-15 04:50:00,62.7,62.0,29.84,NNW,331,0.0,0.0,97,0.00,,,0.00,0,weatherlink.com 1.10,2013-04-15 08:50:00,
2013-04-15 05:05:00,62.4,62.0,29.84,NNW,331,0.0,0.0,97,0.00,,,0.00,0,weatherlink.com 1.10,2013-04-15 09:05:00,
2013-04-15 05:20:00,62.0,61.0,29.84,NNW,331,0.0,0.0,97,0.00,,,0.00,0,weatherlink.com 1.10,2013-04-15 09:20:00,
2013-04-15 05:35:00,61.8,61.0,29.84,NNW,331,0.0,0.0,97,0.00,,,0.00,0,weatherlink.com 1.10,2013-04-15 09:35:00,
2013-04-15 05:50:00,61.6,61.0,29.84,NNW,331,0.0,0.0,97,0.00,,,0.00,0,weatherlink.com 1.10,2013-04-15 09:50:00,
2013-04-15 06:05:00,61.5,61.0,29.84,NNW,331,0.0,0.0,97,0.00,,,0.00,0,weatherlink.com 1.10,2013-04-15 10:05:00,
2013-04-15 06:20:00,61.3,61.0,29.86,NNW,331,0.0,0.0,97,0.00,,,0.00,0,weatherlink.com 1.10,2013-04-15 10:20:00,
2013-04-15 06:37:00,61.2,60.0,29.86,NNW,331,0.0,0.0,97,0.00,,,0.00,0,weatherlink.com 1.10,2013-04-15 10:37:00,
2013-04-15 06:52:00,61.0,61.0,29.87,NNW,331,0.0,0.0,98,0.00,,,0.00,0,weatherlink.com 1.10,2013-04-15 10:52:00,
2013-04-15 07:06:00,61.0,61.0,29.87,NNW,331,0.0,0.0,98,0.00,,,0.00,14,weatherlink.com 1.10,2013-04-15 11:06:00,
2013-04-15 07:22:00,61.2,61.0,29.87,NNW,331,0.0,0.0,98,0.00,,,0.00,39,weatherlink.com 1.10,2013-04-15 11:22:00,
2013-04-15 07:37:00,61.6,61.0,29.89,NNW,331,0.0,0.0,98,0.00,,,0.00,21,weatherlink.com 1.10,2013-04-15 11:37:00,
2013-04-15 07:52:00,62.1,62.0,29.89,NNW,331,0.0,0.0,98,0.00,,,0.00,35,weatherlink.com 1.10,2013-04-15 11:52:00,
2013-04-15 08:22:00,64.7,64.0,29.90,NNW,331,0.0,0.0,99,0.00,,,0.00,148,weatherlink.com 1.10,2013-04-15 12:22:00,
2013-04-15 08:37:00,66.0,66.0,29.91,NW,319,0.0,1.0,99,0.00,,,0.00,230,weatherlink.com 1.10,2013-04-15 12:37:00,
2013-04-15 08:52:00,66.6,66.0,29.91,NW,319,0.0,1.0,99,0.00,,,0.00,339,weatherlink.com 1.10,2013-04-15 12:52:00,
2013-04-15 09:23:00,68.1,68.0,29.92,WNW,295,0.0,1.0,98,0.00,,,0.00,221,weatherlink.com 1.10,2013-04-15 13:23:00,
2013-04-15 09:37:00,68.8,68.0,29.93,WNW,295,0.0,2.0,98,0.00,,,0.00,464,weatherlink.com 1.10,2013-04-15 13:37:00,
2013-04-15 09:53:00,69.1,68.0,29.93,WNW,296,0.0,1.0,97,0.00,,,0.00,302,weatherlink.com 1.10,2013-04-15 13:53:00,
2013-04-15 10:08:00,69.8,68.0,29.93,WNW,295,0.0,1.0,95,0.00,,,0.00,425,weatherlink.com 1.10,2013-04-15 14:08:00,
2013-04-15 10:24:00,70.3,68.0,29.93,SW,214,0.0,1.0,92,0.00,,,0.00,408,weatherlink.com 1.10,2013-04-15 14:24:00,
2013-04-15 10:38:00,71.3,67.0,29.93,WNW,292,0.0,5.0,87,0.00,,,0.00,309,weatherlink.com 1.10,2013-04-15 14:38:00,
2013-04-15 10:54:00,73.0,66.0,29.94,WSW,244,0.0,1.0,79,0.00,,,0.00,729,weatherlink.com 1.10,2013-04-15 14:54:00,
2013-04-15 11:08:00,75.1,66.0,29.94,WSW,254,0.0,1.0,72,0.00,,,0.00,738,weatherlink.com 1.10,2013-04-15 15:08:00,
2013-04-15 11:23:00,76.5,64.0,29.94,WSW,246,0.0,3.0,65,0.00,,,0.00,765,weatherlink.com 1.10,2013-04-15 15:23:00,
2013-04-15 11:39:00,77.4,63.0,29.94,WSW,244,1.0,1.0,62,0.00,,,0.00,696,weatherlink.com 1.10,2013-04-15 15:39:00,
2013-04-15 11:54:00,77.9,62.0,29.94,WSW,253,0.0,5.0,58,0.00,,,0.00,840,weatherlink.com 1.10,2013-04-15 15:54:00,
2013-04-15 12:10:00,78.6,62.0,29.94,NNW,329,0.0,4.0,58,0.00,,,0.00,868,weatherlink.com 1.10,2013-04-15 16:10:00,
2013-04-15 12:24:00,79.8,63.0,29.94,SW,219,0.0,5.0,57,0.00,,,0.00,802,weatherlink.com 1.10,2013-04-15 16:24:00,
2013-04-15 12:39:00,80.7,63.0,29.94,WSW,257,0.0,5.0,55,0.00,,,0.00,868,weatherlink.com 1.10,2013-04-15 16:39:00,
2013-04-15 12:54:00,81.4,63.0,29.93,North,355,0.0,5.0,53,0.00,,,0.00,900,weatherlink.com 1.10,2013-04-15 16:54:00,
2013-04-15 13:09:00,82.4,65.0,29.93,WNW,302,0.0,5.0,56,0.00,,,0.00,904,weatherlink.com 1.10,2013-04-15 17:09:00,
2013-04-15 13:24:00,83.4,64.0,29.93,SW,226,0.0,4.0,52,0.00,,,0.00,904,weatherlink.com 1.10,2013-04-15 17:24:00,
2013-04-15 13:40:00,84.0,64.0,29.93,SW,230,1.0,4.0,51,0.00,,,0.00,904,weatherlink.com 1.10,2013-04-15 17:40:00,
2013-04-15 13:55:00,84.3,64.0,29.93,WSW,250,0.0,6.0,51,0.00,,,0.00,900,weatherlink.com 1.10,2013-04-15 17:55:00,
2013-04-15 14:10:00,85.1,63.0,29.93,West,273,2.0,3.0,48,0.00,,,0.00,891,weatherlink.com 1.10,2013-04-15 18:10:00,
2013-04-15 14:25:00,85.5,65.0,29.93,North,350,0.0,6.0,50,0.00,,,0.00,882,weatherlink.com 1.10,2013-04-15 18:25:00,
2013-04-15 14:40:00,85.9,65.0,29.93,SW,234,0.0,4.0,50,0.00,,,0.00,870,weatherlink.com 1.10,2013-04-15 18:40:00,
2013-04-15 14:55:00,86.7,65.0,29.93,SW,220,0.0,2.0,48,0.00,,,0.00,842,weatherlink.com 1.10,2013-04-15 18:55:00,
2013-04-15 15:11:00,86.7,64.0,29.92,NE,45,0.0,4.0,46,0.00,,,0.00,817,weatherlink.com 1.10,2013-04-15 19:11:00,
2013-04-15 15:25:00,87.4,64.0,29.92,West,276,0.0,4.0,46,0.00,,,0.00,543,weatherlink.com 1.10,2013-04-15 19:25:00,
2013-04-15 15:41:00,83.8,66.0,29.92,NNE,33,3.0,8.0,55,0.00,,,0.00,425,weatherlink.com 1.10,2013-04-15 19:41:00,
2013-04-15 16:10:00,79.6,64.0,29.92,ESE,110,0.0,10.0,60,0.00,,,0.00,454,weatherlink.com 1.10,2013-04-15 20:10:00,
2013-04-15 16:26:00,77.7,64.0,29.92,ESE,123,3.0,10.0,62,0.00,,,0.00,260,weatherlink.com 1.10,2013-04-15 20:26:00,
2013-04-15 16:42:00,77.4,64.0,29.92,NE,50,1.0,10.0,63,0.00,,,0.00,578,weatherlink.com 1.10,2013-04-15 20:42:00,
2013-04-15 16:56:00,77.2,64.0,29.92,East,92,0.0,8.0,64,0.00,,,0.00,534,weatherlink.com 1.10,2013-04-15 20:56:00,
2013-04-15 17:11:00,76.7,64.0,29.93,ESE,106,1.0,8.0,64,0.00,,,0.00,497,weatherlink.com 1.10,2013-04-15 21:11:00,
2013-04-15 17:26:00,76.3,64.0,29.93,ESE,104,0.0,8.0,65,0.00,,,0.00,439,weatherlink.com 1.10,2013-04-15 21:26:00,
2013-04-15 17:42:00,76.0,63.0,29.93,ESE,109,0.0,11.0,65,0.00,,,0.00,380,weatherlink.com 1.10,2013-04-15 21:42:00,
2013-04-15 17:56:00,74.7,63.0,29.94,ENE,69,0.0,10.0,66,0.00,,,0.00,309,weatherlink.com 1.10,2013-04-15 21:56:00,
2013-04-15 18:12:00,73.9,63.0,29.95,East,99,0.0,8.0,69,0.00,,,0.00,271,weatherlink.com 1.10,2013-04-15 22:12:00,
2013-04-15 18:27:00,73.2,62.0,29.95,NE,51,0.0,7.0,69,0.00,,,0.00,62,weatherlink.com 1.10,2013-04-15 22:27:00,
2013-04-15 18:42:00,72.8,62.0,29.95,NE,35,0.0,5.0,68,0.00,,,0.00,116,weatherlink.com 1.10,2013-04-15 22:42:00,
2013-04-15 18:58:00,72.5,62.0,29.95,NNE,13,2.0,8.0,69,0.00,,,0.00,37,weatherlink.com 1.10,2013-04-15 22:58:00,
2013-04-15 19:12:00,72.1,62.0,29.96,East,100,0.0,4.0,70,0.00,,,0.00,25,weatherlink.com 1.10,2013-04-15 23:12:00,
2013-04-15 19:28:00,71.6,62.0,29.96,ENE,74,0.0,3.0,71,0.00,,,0.00,23,weatherlink.com 1.10,2013-04-15 23:28:00,
2013-04-15 19:42:00,71.1,62.0,29.97,ENE,78,1.0,3.0,73,0.00,,,0.00,9,weatherlink.com 1.10,2013-04-15 23:42:00,
2013-04-15 19:58:00,70.6,62.0,29.97,ENE,65,0.0,2.0,74,0.00,,,0.00,0,weatherlink.com 1.10,2013-04-15 23:58:00,
2013-04-15 20:12:00,70.1,62.0,29.98,East,98,0.0,2.0,76,0.00,,,0.00,0,weatherlink.com 1.10,2013-04-16 00:12:00,
2013-04-15 20:28:00,69.6,62.0,29.98,East,97,0.0,5.0,77,0.00,,,0.00,0,weatherlink.com 1.10,2013-04-16 00:28:00,
2013-04-15 20:44:00,69.3,62.0,29.98,East,97,0.0,3.0,78,0.00,,,0.00,0,weatherlink.com 1.10,2013-04-16 00:44:00,
2013-04-15 20:58:00,68.9,62.0,29.98,East,97,0.0,1.0,79,0.00,,,0.00,0,weatherlink.com 1.10,2013-04-16 00:58:00,
2013-04-15 21:13:00,68.8,62.0,29.99,East,95,0.0,2.0,80,0.00,,,0.00,0,weatherlink.com 1.10,2013-04-16 01:13:00,
2013-04-15 21:28:00,68.4,62.0,29.99,ENE,77,0.0,3.0,81,0.00,,,0.00,0,weatherlink.com 1.10,2013-04-16 01:28:00,
2013-04-15 21:44:00,68.3,63.0,30.00,ESE,111,0.0,2.0,82,0.00,,,0.00,0,weatherlink.com 1.10,2013-04-16 01:44:00,
2013-04-15 21:59:00,67.9,63.0,30.02,ESE,111,0.0,0.0,83,0.00,,,0.00,0,weatherlink.com 1.10,2013-04-16 01:59:00,
2013-04-15 22:13:00,67.8,63.0,30.02,ESE,111,0.0,1.0,84,0.00,,,0.00,0,weatherlink.com 1.10,2013-04-16 02:13:00,
2013-04-15 22:29:00,67.6,63.0,30.04,ESE,111,0.0,2.0,85,0.00,,,0.00,0,weatherlink.com 1.10,2013-04-16 02:29:00,
2013-04-15 22:43:00,67.4,63.0,30.04,ESE,111,0.0,1.0,86,0.00,,,0.00,0,weatherlink.com 1.10,2013-04-16 02:43:00,
2013-04-15 22:59:00,67.4,63.0,30.04,ESE,111,0.0,3.0,86,0.00,,,0.00,0,weatherlink.com 1.10,2013-04-16 02:59:00,
2013-04-15 23:14:00,67.4,64.0,30.04,ESE,111,2.0,2.0,87,0.00,,,0.00,0,weatherlink.com 1.10,2013-04-16 03:14:00,
2013-04-15 23:29:00,67.3,64.0,30.04,ESE,106,0.0,3.0,88,0.00,,,0.00,0,weatherlink.com 1.10,2013-04-16 03:29:00,
2013-04-15 23:44:00,66.9,63.0,30.04,ESE,106,0.0,1.0,88,0.00,,,0.00,0,weatherlink.com 1.10,2013-04-16 03:44:00,
2013-04-15 23:59:00,66.8,64.0,30.05,ESE,106,0.0,0.0,89,0.00,,,0.00,0,weatherlink.com 1.10,2013-04-16 03:59:00,